K4VEB Weather Reports


time (UTC)temp
F
wind
direction
speed
knots
gust
knots
rain 1hr
in
rain 24hr
in
rain mn
in
humidity
%
barometer
mb
20260510194018 92 219 6.1 7.0 0.00 0.00 0.00 50 1015.0
20260510193512 91 230 5.2 7.0 0.00 0.00 0.00 51 1015.0
20260510193009 90 262 2.6 2.6 0.00 0.00 0.00 51 1015.1
20260510192503 90 267 4.3 7.0 0.00 0.00 0.00 51 1015.0
20260510191959 90 196 7.0 11.3 0.00 0.00 0.00 50 1015.0
20260510191456 91 156 5.2 7.0 0.00 0.00 0.00 50 1015.0
20260510190953 90 272 4.3 6.1 0.00 0.00 0.00 52 1015.1
20260510190450 89 198 6.1 7.8 0.00 0.00 0.00 53 1015.1
20260510185947 88 267 3.5 3.5 0.00 0.00 0.00 54 1015.1
20260510185444 89 173 5.2 6.1 0.00 0.00 0.00 55 1015.1
20260510184941 91 50 1.7 2.6 0.00 0.00 0.00 52 1015.2
20260510184439 91 339 3.5 6.1 0.00 0.00 0.00 51 1015.0
20260510183938 91 291 10.4 14.8 0.00 0.00 0.00 51 1015.2
20260510183436 92 322 3.5 7.8 0.00 0.00 0.00 51 1015.1
20260510182935 94 347 3.5 5.2 0.00 0.00 0.00 48 1014.9
20260510182432 94 216 7.8 8.7 0.00 0.00 0.00 44 1015.0
20260510181928 94 284 5.2 7.0 0.00 0.00 0.00 45 1014.9
20260510181426 94 287 6.1 7.8 0.00 0.00 0.00 45 1014.8
20260510180922 94 279 7.8 11.3 0.00 0.00 0.00 46 1014.9
20260510180419 93 328 4.3 5.2 0.00 0.00 0.00 48 1015.1
20260510175916 93 294 7.8 8.7 0.00 0.00 0.00 48 1014.9
20260510175412 93 256 4.3 8.7 0.00 0.00 0.00 49 1015.1
20260510174908 92 299 0.9 0.9 0.00 0.00 0.00 50 1015.0
20260510174406 92 218 5.2 6.1 0.00 0.00 0.00 51 1015.3
20260510173902 92 319 1.7 2.6 0.00 0.00 0.00 53 1015.3
20260510173358 91 278 3.5 3.5 0.00 0.00 0.00 54 1015.3
20260510172854 90 262 1.7 2.6 0.00 0.00 0.00 55 1015.5
20260510172350 92 300 2.6 2.6 0.00 0.00 0.00 52 1015.5
20260510171847 91 292 1.7 2.6 0.00 0.00 0.00 52 1015.6
20260510171344 90 271 3.5 5.2 0.00 0.00 0.00 57 1015.9
20260510170841 91 267 4.3 5.2 0.00 0.00 0.00 57 1015.7
20260510170337 91 277 5.2 6.1 0.00 0.00 0.00 54 1015.8
20260510165833 91 213 3.5 5.2 0.00 0.00 0.00 53 1015.9
20260510165329 90 244 4.3 6.1 0.00 0.00 0.00 55 1016.0
20260510164827 90 247 5.2 6.1 0.00 0.00 0.00 55 1016.0
20260510164324 91 277 2.6 3.5 0.00 0.00 0.00 54 1016.0
20260510163823 91 316 3.5 5.2 0.00 0.00 0.00 54 1016.1
20260510163320 91 322 1.7 1.7 0.00 0.00 0.00 53 1016.2
20260510162819 90 330 2.6 2.6 0.00 0.00 0.00 56 1016.2
20260510162317 92 229 1.7 2.6 0.00 0.00 0.00 54 1016.5
20260510161813 91 346 0.9 0.9 0.00 0.00 0.00 57 1016.5
20260510161309 90 136 3.5 3.5 0.00 0.00 0.00 57 1016.5
20260510160807 89 233 5.2 7.0 0.00 0.00 0.00 58 1016.4
20260510160303 89 277 5.2 7.0 0.00 0.00 0.00 58 1016.6
20260510155802 89 195 3.5 5.2 0.00 0.00 0.00 59 1016.7
20260510155259 89 346 2.6 5.2 0.00 0.00 0.00 60 1016.5
20260510154754 88 219 5.2 6.1 0.00 0.00 0.00 60 1016.4
20260510154251 88 211 3.5 3.5 0.00 0.00 0.00 60 1016.5
20260510153746 88 238 2.6 3.5 0.00 0.00 0.00 61 1016.5
20260510153242 88 279 2.6 3.5 0.00 0.00 0.00 61 1016.4
20260510152739 89 191 3.5 6.1 0.00 0.00 0.00 60 1016.6
20260510152236 89 210 4.3 7.0 0.00 0.00 0.00 59 1016.2
20260510151732 89 201 3.5 3.5 0.00 0.00 0.00 60 1016.4
20260510151231 88 266 2.6 2.6 0.00 0.00 0.00 62 1016.5
20260510150726 87 163 1.7 2.6 0.00 0.00 0.00 63 1016.6
20260510150221 87 316 1.7 1.7 0.00 0.00 0.00 63 1016.5
20260510145718 86 213 5.2 6.1 0.00 0.00 0.00 64 1016.5
20260510145214 86 243 4.3 6.1 0.00 0.00 0.00 65 1016.5
20260510144711 86 183 2.6 5.2 0.00 0.00 0.00 64 1016.5
20260510144208 86 185 4.3 6.1 0.00 0.00 0.00 65 1016.6
20260510143702 86 239 6.1 7.0 0.00 0.00 0.00 64 1016.4
20260510143159 86 218 4.3 5.2 0.00 0.00 0.00 65 1016.4
20260510142655 86 212 2.6 5.2 0.00 0.00 0.00 66 1016.4
20260510142152 85 149 2.6 3.5 0.00 0.00 0.00 67 1016.2
20260510141649 84 198 5.2 6.1 0.00 0.00 0.00 68 1016.0
20260510141147 84 281 3.5 3.5 0.00 0.00 0.00 68 1016.0
20260510140644 84 203 3.5 5.2 0.00 0.00 0.00 68 1016.0
20260510140143 83 255 4.3 5.2 0.00 0.00 0.00 69 1016.0
20260510135638 82 194 5.2 7.0 0.00 0.00 0.00 71 1016.3
20260510135134 82 244 5.2 7.0 0.00 0.00 0.00 71 1015.9
20260510134631 82 149 2.6 2.6 0.00 0.00 0.00 73 1016.0
20260510134129 82 245 2.6 2.6 0.00 0.00 0.00 72 1016.3
20260510133625 82 300 3.5 3.5 0.00 0.00 0.00 74 1016.0
20260510133120 82 300 3.5 3.5 0.00 0.00 0.00 74 1016.0
20260510132618 81 308 1.7 1.7 0.00 0.00 0.00 76 1016.0
20260510132115 81 341 0.9 1.7 0.00 0.00 0.00 76 1015.8
20260510131612 80 198 2.6 3.5 0.00 0.00 0.00 79 1016.1
20260510131109 79 313 1.7 2.6 0.00 0.00 0.00 79 1016.1
20260510130605 78 194 2.6 2.6 0.00 0.00 0.00 80 1016.0
20260510125559 78 255 2.6 3.5 0.00 0.00 0.00 82 1016.2
20260510125055 78 255 2.6 3.5 0.00 0.00 0.00 82 1015.9
20260510124552 77 217 3.5 3.5 0.00 0.00 0.00 83 1015.9
20260510124049 77 28 1.7 2.6 0.00 0.00 0.00 83 1015.9
20260510123544 77 211 2.6 3.5 0.00 0.00 0.00 84 1015.9
20260510123041 77 310 1.7 2.6 0.00 0.00 0.00 85 1015.7
20260510122537 77 303 0.9 1.7 0.00 0.00 0.00 86 1015.8
20260510122033 77 219 1.7 1.7 0.00 0.00 0.00 86 1015.9
20260510121530 76 347 1.7 2.6 0.00 0.00 0.00 87 1015.7
20260510121027 75 262 1.7 1.7 0.00 0.00 0.00 88 1015.6
20260510120525 75 206 1.7 2.6 0.00 0.00 0.00 88 1015.6
20260510120020 75 6 0.9 1.7 0.00 0.00 0.00 89 1015.5
20260510115517 75 314 2.6 3.5 0.00 0.00 0.00 89 1015.4
20260510115014 74 334 1.7 1.7 0.00 0.00 0.00 90 1015.3
20260510114510 74 57 2.6 2.6 0.00 0.00 0.00 91 1015.3
20260510114006 74 325 2.6 3.5 0.00 0.00 0.00 91 1015.2
20260510113501 74 330 0.0 0.9 0.00 0.00 0.00 91 1014.9
20260510112959 73 332 0.9 1.7 0.00 0.00 0.00 91 1014.7
20260510112456 73 333 0.0 0.0 0.00 0.00 0.00 92 1014.8
20260510111953 73 346 0.0 0.0 0.00 0.00 0.00 92 1014.7
20260510111449 73 344 0.0 0.0 0.00 0.00 0.00 91 1014.7
20260510110945 73 344 0.0 0.0 0.00 0.00 0.00 91 1014.4
20260510110442 73 344 0.0 0.0 0.00 0.00 0.00 91 1014.4
20260510105937 73 344 0.0 0.0 0.00 0.00 0.00 91 1014.3
20260510105432 73 344 0.0 0.0 0.00 0.00 0.00 91 1014.3
20260510104928 73 350 0.0 0.0 0.00 0.00 0.00 91 1014.2
20260510104425 74 351 0.0 0.9 0.00 0.00 0.00 91 1013.9
20260510103921 73 317 0.9 0.9 0.00 0.00 0.00 91 1014.1
20260510103419 74 326 0.9 0.9 0.00 0.00 0.00 91 1014.0
20260510102914 73 330 0.9 0.9 0.00 0.00 0.00 91 1013.9
20260510102410 73 354 0.9 1.7 0.00 0.00 0.00 91 1014.0
20260510101907 73 342 0.9 0.9 0.00 0.00 0.00 92 1013.8
20260510101405 73 231 1.7 1.7 0.00 0.00 0.00 91 1013.7
20260510100903 73 343 0.9 0.9 0.00 0.00 0.00 92 1013.7
20260510100359 73 1 0.9 0.9 0.00 0.00 0.00 91 1013.6
20260510095856 73 358 0.9 0.9 0.00 0.00 0.00 91 1013.6
20260510095350 73 349 0.0 0.0 0.00 0.00 0.00 91 1013.4
20260510094850 73 349 0.0 0.9 0.00 0.00 0.00 91 1013.6
20260510094345 73 319 0.9 1.7 0.00 0.00 0.00 91 1013.5
20260510093842 73 308 0.9 0.9 0.00 0.00 0.00 91 1013.5
20260510093337 73 331 0.9 0.9 0.00 0.00 0.00 91 1013.3
20260510092834 73 327 0.0 0.9 0.00 0.00 0.00 91 1013.4
20260510092330 73 356 0.0 0.9 0.00 0.00 0.00 91 1013.4
20260510091826 73 346 0.0 0.0 0.00 0.00 0.00 91 1013.2
20260510091323 73 356 0.0 0.9 0.00 0.00 0.00 91 1013.4
20260510090820 73 348 0.0 0.0 0.00 0.00 0.00 91 1013.4
20260510090317 73 345 0.0 0.0 0.00 0.00 0.00 91 1013.2
20260510085813 73 340 0.9 1.7 0.00 0.00 0.00 91 1013.0
20260510085312 73 93 1.7 2.6 0.00 0.00 0.00 91 1012.9
20260510084808 73 320 0.9 0.9 0.00 0.00 0.00 91 1013.0
20260510084306 73 353 0.9 0.9 0.00 0.00 0.00 91 1012.9
20260510083802 73 354 0.9 0.9 0.00 0.00 0.00 91 1012.8
20260510083259 73 345 0.9 0.9 0.00 0.00 0.00 91 1012.7
20260510082755 73 348 1.7 1.7 0.00 0.00 0.00 91 1012.8
20260510082251 73 78 0.9 1.7 0.00 0.00 0.00 91 1012.9
20260510081750 73 31 1.7 2.6 0.00 0.00 0.00 91 1012.7
20260510081247 73 347 0.0 0.0 0.00 0.00 0.00 91 1012.9
20260510080742 73 345 0.9 0.9 0.00 0.00 0.00 91 1012.9
20260510080238 73 349 0.9 1.7 0.00 0.00 0.00 91 1013.0
20260510075735 73 345 0.0 0.9 0.00 0.00 0.00 91 1012.9
20260510075233 73 354 0.9 1.7 0.00 0.00 0.00 91 1013.0
20260510074730 73 337 0.9 0.9 0.00 0.00 0.00 91 1012.9
20260510074226 73 349 0.0 0.0 0.00 0.00 0.00 90 1013.2
20260510073722 74 3 1.7 1.7 0.00 0.00 0.00 90 1013.2
20260510073218 74 343 0.9 1.7 0.00 0.00 0.00 90 1013.1
20260510072714 73 356 0.9 1.7 0.00 0.00 0.00 91 1013.2
20260510072211 73 351 0.0 0.9 0.00 0.00 0.00 91 1013.3
20260510071708 73 356 1.7 1.7 0.00 0.00 0.00 91 1013.4
20260510071204 73 1 0.9 1.7 0.00 0.00 0.00 91 1013.4
20260510070702 73 5 1.7 1.7 0.00 0.00 0.00 91 1013.3
20260510070200 73 3 0.9 1.7 0.00 0.00 0.00 91 1013.5
20260510065700 73 352 0.0 0.0 0.00 0.00 0.00 91 1013.3
20260510065156 73 338 1.7 2.6 0.00 0.00 0.00 91 1013.2
20260510064653 73 348 0.0 0.0 0.00 0.00 0.00 91 1013.5
20260510064150 73 353 0.0 0.0 0.00 0.00 0.00 91 1013.5
20260510063647 74 7 0.0 0.9 0.00 0.00 0.00 91 1013.5
20260510063143 74 6 0.9 0.9 0.00 0.00 0.00 91 1013.7
20260510062640 74 204 0.9 1.7 0.00 0.00 0.00 91 1014.0
20260510062136 74 340 0.0 0.9 0.00 0.00 0.00 91 1014.0
20260510061631 74 348 0.9 1.7 0.00 0.00 0.00 91 1014.1
20260510061129 73 340 1.7 1.7 0.00 0.00 0.00 91 1014.2
20260510060625 73 336 0.9 0.9 0.00 0.00 0.00 91 1014.2
20260510060121 73 350 0.0 0.0 0.00 0.00 0.00 91 1014.0
20260510055618 73 353 0.0 0.0 0.00 0.00 0.00 91 1014.1
20260510055116 73 355 0.0 0.0 0.00 0.00 0.00 91 1014.2
20260510054611 73 356 0.0 0.0 0.00 0.00 0.00 90 1014.4
20260510054107 73 351 0.0 0.0 0.00 0.00 0.00 90 1014.4
20260510053606 74 345 0.0 0.0 0.00 0.00 0.00 90 1014.5
20260510053103 73 341 0.0 0.0 0.00 0.00 0.00 90 1014.6
20260510052559 74 351 0.0 0.0 0.00 0.00 0.00 89 1014.4
20260510052056 74 351 0.0 0.0 0.00 0.00 0.00 88 1014.5
20260510051551 74 356 0.0 0.0 0.00 0.00 0.00 88 1014.6
20260510051048 74 350 0.0 0.0 0.00 0.00 0.00 87 1014.7
20260510050546 74 344 0.0 0.0 0.00 0.00 0.00 87 1014.7
20260510050043 74 6 0.0 0.9 0.00 0.00 0.00 87 1014.6
20260510045540 75 13 0.0 0.9 0.00 0.00 0.00 86 1014.5
20260510045035 75 20 0.9 1.7 0.00 0.00 0.00 86 1014.6
20260510044532 75 6 0.0 0.0 0.00 0.00 0.00 86 1014.9
20260510044030 75 8 0.0 0.0 0.00 0.00 0.00 85 1015.0
20260510043526 75 12 0.0 0.0 0.00 0.00 0.00 85 1015.0
20260510043021 75 12 0.0 0.0 0.00 0.00 0.00 84 1015.1
20260510042515 75 19 0.9 0.9 0.00 0.00 0.00 84 1015.1
20260510042010 75 61 1.7 1.7 0.00 0.00 0.00 84 1015.0
20260510041508 75 12 0.9 0.9 0.00 0.00 0.00 84 1015.0
20260510041006 75 37 1.7 1.7 0.00 0.00 0.00 84 1015.1
20260510040502 75 8 0.0 0.0 0.00 0.00 0.00 84 1015.0
20260510035957 75 8 0.0 0.0 0.00 0.00 0.00 84 1015.0
20260510035455 74 9 0.0 0.0 0.00 0.00 0.00 84 1015.1
20260510034953 74 8 0.0 0.0 0.00 0.00 0.00 84 1014.9
20260510034453 74 9 0.0 0.0 0.00 0.00 0.00 85 1014.9
20260510033948 74 5 0.9 0.9 0.00 0.00 0.00 85 1015.1
20260510033444 74 5 0.0 0.0 0.00 0.00 0.00 85 1014.8
20260510032942 74 5 0.0 0.0 0.00 0.00 0.00 85 1015.1
20260510032439 73 5 0.0 0.0 0.00 0.00 0.00 86 1014.9
20260510031939 73 7 0.0 0.0 0.00 0.00 0.00 85 1015.0
20260510031435 73 7 0.0 0.0 0.00 0.00 0.00 85 1014.9
20260510030930 73 7 0.0 0.0 0.00 0.00 0.00 84 1014.8
20260510030426 73 7 0.0 0.0 0.00 0.00 0.00 84 1015.0
20260510025924 74 8 0.0 0.0 0.00 0.00 0.00 83 1014.8
20260510025421 74 8 0.0 0.0 0.00 0.00 0.00 83 1014.5
20260510024919 74 8 0.0 0.0 0.00 0.00 0.00 82 1014.7
20260510024415 74 8 0.0 0.0 0.00 0.00 0.00 82 1014.6
20260510023911 75 8 0.0 0.9 0.00 0.00 0.00 81 1014.7
20260510023407 75 8 0.0 0.0 0.00 0.00 0.00 81 1014.6
20260510022905 75 10 0.0 0.9 0.00 0.00 0.00 80 1014.6
20260510022403 75 10 0.0 0.9 0.00 0.00 0.00 80 1014.4
20260510021902 75 9 0.0 0.0 0.00 0.00 0.00 80 1014.5
20260510021401 75 9 0.9 1.7 0.00 0.00 0.00 80 1014.3
20260510020857 75 11 0.0 0.9 0.00 0.00 0.00 80 1014.6
20260510020352 75 11 0.0 0.0 0.00 0.00 0.00 80 1014.5
20260510015848 75 13 0.9 0.9 0.00 0.00 0.00 80 1014.3
20260510015344 75 9 0.9 0.9 0.00 0.00 0.00 80 1014.3
20260510014839 75 10 0.9 0.9 0.00 0.00 0.00 80 1014.2
20260510014337 75 46 1.7 1.7 0.00 0.00 0.00 80 1014.3
20260510013833 75 356 0.0 0.0 0.00 0.00 0.00 79 1014.3
20260510013329 76 356 0.0 0.9 0.00 0.00 0.00 79 1014.2
20260510012824 76 12 0.9 1.7 0.00 0.00 0.00 79 1014.0
20260510012323 76 19 1.7 1.7 0.00 0.00 0.00 79 1013.8
20260510011819 76 7 0.9 0.9 0.00 0.00 0.00 79 1013.9
20260510011314 76 4 0.0 0.9 0.00 0.00 0.00 78 1013.9
20260510010811 76 347 0.9 0.9 0.00 0.00 0.00 78 1013.9
20260510010308 76 0 0.9 0.9 0.00 0.00 0.00 78 1013.9
20260510005805 76 348 0.9 0.9 0.00 0.00 0.00 78 1013.9
20260510005301 76 353 0.9 0.9 0.00 0.00 0.00 78 1013.9
20260510004759 76 0 0.9 0.9 0.00 0.00 0.00 78 1013.6
20260510004256 76 354 0.0 0.9 0.00 0.00 0.00 78 1013.4
20260510003753 76 7 0.9 1.7 0.00 0.00 0.00 77 1013.6
20260510003250 77 346 1.7 2.6 0.00 0.00 0.00 78 1013.6
20260510002749 77 23 2.6 3.5 0.00 0.00 0.00 78 1013.6
20260510002247 77 2 2.6 2.6 0.00 0.00 0.00 78 1013.3
20260510001743 77 16 2.6 3.5 0.00 0.00 0.00 78 1013.2
20260510001242 77 27 2.6 2.6 0.00 0.00 0.00 78 1013.1
20260510000737 77 344 1.7 1.7 0.00 0.00 0.00 77 1013.2
20260510000234 78 354 1.7 2.6 0.00 0.00 0.00 77 1013.1
20260509235731 78 11 3.5 5.2 0.00 0.00 0.00 76 1013.2
20260509235228 79 4 2.6 2.6 0.00 0.00 0.00 75 1013.1
20260509234723 80 347 2.6 3.5 0.00 0.00 0.00 73 1012.9
20260509234221 82 334 2.6 2.6 0.00 0.00 0.00 71 1012.8
20260509233719 82 333 1.7 2.6 0.00 0.00 0.00 67 1012.7
20260509233216 83 346 1.7 1.7 0.00 0.00 0.00 66 1012.5
20260509232712 83 346 1.7 1.7 0.00 0.00 0.00 66 1012.5
20260509232210 83 198 1.7 2.6 0.00 0.00 0.00 66 1012.6
20260509231706 83 344 2.6 3.5 0.00 0.00 0.00 66 1012.4
20260509231204 83 347 3.5 5.2 0.00 0.00 0.00 65 1012.5
20260509230701 84 343 1.7 1.7 0.00 0.00 0.00 65 1012.4
20260509230157 84 322 2.6 2.6 0.00 0.00 0.00 65 1012.3
20260509225653 84 344 1.7 1.7 0.00 0.00 0.00 64 1012.3
20260509225148 84 348 0.9 1.7 0.00 0.00 0.00 63 1012.3
20260509224644 85 345 0.9 1.7 0.00 0.00 0.00 63 1012.0
20260509224141 85 345 0.9 0.9 0.00 0.00 0.00 62 1012.0
20260509223638 85 346 0.9 1.7 0.00 0.00 0.00 61 1012.0
20260509223136 86 14 1.7 1.7 0.00 0.00 0.00 61 1012.0
20260509222633 86 344 1.7 1.7 0.00 0.00 0.00 59 1011.9
20260509222127 87 345 0.9 0.9 0.00 0.00 0.00 58 1012.0
20260509221624 88 342 1.7 2.6 0.00 0.00 0.00 54 1011.7
20260509221120 89 344 1.7 1.7 0.00 0.00 0.00 52 1011.6
20260509220616 89 328 2.6 2.6 0.00 0.00 0.00 51 1011.6
20260509220113 89 287 5.2 7.0 0.00 0.00 0.00 51 1011.8
20260509215608 89 311 1.7 1.7 0.00 0.00 0.00 52 1011.6
20260509215105 89 282 3.5 7.8 0.00 0.00 0.00 51 1011.4
20260509214602 89 271 5.2 7.0 0.00 0.00 0.00 51 1011.5
20260509214059 90 275 2.6 6.1 0.00 0.00 0.00 51 1011.4
20260509213555 90 304 3.5 3.5 0.00 0.00 0.00 52 1011.4
20260509213052 90 240 6.1 6.1 0.00 0.00 0.00 51 1011.3
20260509212549 90 189 2.6 3.5 0.00 0.00 0.00 51 1011.3
20260509212046 90 246 5.2 7.0 0.00 0.00 0.00 51 1011.0
20260509211541 90 340 0.9 0.9 0.00 0.00 0.00 49 1011.1
20260509211038 91 255 7.8 8.7 0.00 0.00 0.00 49 1011.3
20260509210535 93 330 3.5 6.1 0.00 0.00 0.00 47 1011.1
20260509210032 91 323 1.7 2.6 0.00 0.00 0.00 49 1011.2
20260509205526 90 340 1.7 3.5 0.00 0.00 0.00 50 1011.2
20260509205021 90 291 2.6 2.6 0.00 0.00 0.00 51 1011.2
20260509204518 90 330 1.7 2.6 0.00 0.00 0.00 51 1011.4
20260509204015 90 262 4.3 7.0 0.00 0.00 0.00 52 1011.4
20260509203510 90 220 6.1 7.8 0.00 0.00 0.00 52 1011.3
20260509203010 89 326 0.9 1.7 0.00 0.00 0.00 55 1011.1
20260509202509 89 297 5.2 6.1 0.00 0.00 0.00 57 1011.2
20260509202005 90 256 6.1 7.8 0.00 0.00 0.00 54 1011.3
20260509201500 89 342 1.7 2.6 0.00 0.00 0.00 56 1011.3
20260509200958 89 285 3.5 5.2 0.00 0.00 0.00 55 1011.3
20260509200458 88 244 2.6 2.6 0.00 0.00 0.00 56 1011.4
20260509195954 86 250 3.5 5.2 0.00 0.00 0.00 59 1011.4
20260509195450 86 318 1.7 1.7 0.00 0.00 0.00 61 1011.3
20260509194949 87 283 3.5 5.2 0.00 0.00 0.00 60 1011.5
20260509194445 87 329 1.7 2.6 0.00 0.00 0.00 58 1011.5